DAL1347 KATL-KLIT

Flight info

Callsign DAL1347
Flight time 1h 19m
Altitude 38000
Route NASSA2 YAALL J14 XESSS LITTR
Aircraft A319/M-SDE3FGHIRWY/LB1

Departure

Time 2026-05-03 22:29
Airport Hartsfield Jackson Atlanta International Airport (KATL)

Arrival

Time 2026-05-03 23:48
Airport Bill & Hillary Clinton National Airport/Adams Field (KLIT)
Time Latitude Longitude Altitude Speed Heading
2026-05-03 21:53 33.64186 -84.43311 1021 ft 0 kts 81°
2026-05-03 22:17 33.64185 -84.43311 1021 ft 1 kts 81°
2026-05-03 22:17 33.64182 -84.43338 1021 ft 3 kts 82°
2026-05-03 22:18 33.64177 -84.43369 1020 ft 4 kts 67°
2026-05-03 22:18 33.64162 -84.43396 1020 ft 3 kts 33°
2026-05-03 22:18 33.64159 -84.43399 1019 ft 0 kts 31°
2026-05-03 22:20 33.64160 -84.43399 1019 ft 1 kts 21°
2026-05-03 22:20 33.64185 -84.43395 1021 ft 4 kts
2026-05-03 22:20 33.64217 -84.43395 1022 ft 6 kts 359°
2026-05-03 22:21 33.64253 -84.43394 1022 ft 4 kts
2026-05-03 22:21 33.64306 -84.43394 1026 ft 18 kts 360°
2026-05-03 22:21 33.64380 -84.43394 1028 ft 0 kts 360°
2026-05-03 22:22 33.64381 -84.43394 1028 ft 1 kts 360°
2026-05-03 22:22 33.64422 -84.43392 1027 ft 7 kts 13°
2026-05-03 22:22 33.64454 -84.43345 1028 ft 8 kts 67°
2026-05-03 22:22 33.64462 -84.43279 1030 ft 8 kts 92°
2026-05-03 22:23 33.64462 -84.43204 1031 ft 10 kts 89°
2026-05-03 22:23 33.64463 -84.43119 1030 ft 11 kts 90°
2026-05-03 22:23 33.64461 -84.43011 1026 ft 15 kts 91°
2026-05-03 22:23 33.64463 -84.42872 1022 ft 18 kts 90°
2026-05-03 22:24 33.64468 -84.42716 1021 ft 19 kts 88°
2026-05-03 22:24 33.64468 -84.42543 1016 ft 22 kts 90°
2026-05-03 22:24 33.64473 -84.42343 1011 ft 24 kts 86°
2026-05-03 22:24 33.64473 -84.42267 1012 ft 8 kts 76°
2026-05-03 22:25 33.64512 -84.42171 1013 ft 15 kts 57°
2026-05-03 22:25 33.64543 -84.42050 1013 ft 16 kts 86°
2026-05-03 22:25 33.64544 -84.41913 1013 ft 17 kts 88°
2026-05-03 22:25 33.64542 -84.41776 1014 ft 16 kts 91°
2026-05-03 22:26 33.64544 -84.41636 1016 ft 18 kts 87°
2026-05-03 22:26 33.64545 -84.41488 1015 ft 19 kts 91°
2026-05-03 22:26 33.64542 -84.41327 1014 ft 20 kts 91°
2026-05-03 22:26 33.64543 -84.41155 1012 ft 21 kts 90°
2026-05-03 22:27 33.64543 -84.40964 1006 ft 24 kts 89°
2026-05-03 22:27 33.64560 -84.40793 1003 ft 17 kts 70°
2026-05-03 22:27 33.64570 -84.40648 1000 ft 16 kts 91°
2026-05-03 22:27 33.64630 -84.40571 999 ft 14 kts 352°
2026-05-03 22:28 33.64680 -84.40644 1000 ft 10 kts 274°
2026-05-03 22:28 33.64679 -84.40734 1002 ft 12 kts 270°
2026-05-03 22:28 33.64680 -84.41016 1009 ft 70 kts 270°
2026-05-03 22:28 33.64681 -84.41881 1018 ft 135 kts 270°
2026-05-03 22:29 33.64685 -84.43192 1263 ft 166 kts 271°
2026-05-03 22:29 33.64708 -84.44581 2058 ft 167 kts 276°
2026-05-03 22:29 33.64816 -84.45963 2826 ft 169 kts 285°
2026-05-03 22:29 33.65085 -84.47444 3318 ft 192 kts 285°
2026-05-03 22:30 33.65376 -84.49094 3846 ft 213 kts 284°
2026-05-03 22:30 33.65708 -84.50958 4264 ft 244 kts 284°
2026-05-03 22:30 33.66088 -84.53031 5045 ft 259 kts 285°
2026-05-03 22:30 33.66482 -84.55141 6190 ft 261 kts 285°
2026-05-03 22:31 33.66880 -84.57304 7122 ft 269 kts 284°
2026-05-03 22:31 33.67261 -84.59498 8225 ft 268 kts 283°
2026-05-03 22:31 33.67631 -84.61679 9384 ft 266 kts 282°
2026-05-03 22:31 33.67998 -84.63901 10232 ft 276 kts 281°
2026-05-03 22:32 33.68381 -84.66246 10739 ft 296 kts 281°
2026-05-03 22:32 33.68786 -84.68710 11492 ft 304 kts 281°
2026-05-03 22:32 33.69201 -84.71215 12420 ft 307 kts 281°
2026-05-03 22:32 33.69621 -84.73735 13371 ft 309 kts 281°
2026-05-03 22:33 33.69968 -84.76284 14232 ft 312 kts 274°
2026-05-03 22:33 33.69989 -84.78897 15065 ft 313 kts 270°
2026-05-03 22:33 33.69982 -84.81510 15926 ft 314 kts 270°
2026-05-03 22:33 33.69979 -84.84139 16786 ft 315 kts 270°
2026-05-03 22:34 33.69974 -84.86765 17627 ft 315 kts 269°
2026-05-03 22:34 33.69968 -84.89402 18455 ft 317 kts 269°
2026-05-03 22:34 33.69962 -84.92051 19172 ft 318 kts 269°
2026-05-03 22:34 33.69953 -84.94712 19870 ft 320 kts 269°
2026-05-03 22:35 33.69944 -84.97390 20570 ft 322 kts 269°
2026-05-03 22:35 33.69936 -85.00083 21261 ft 324 kts 269°
2026-05-03 22:35 33.69930 -85.02796 21935 ft 326 kts 268°
2026-05-03 22:35 33.69923 -85.05528 22610 ft 328 kts 268°
2026-05-03 22:36 33.69915 -85.08279 23287 ft 331 kts 268°
2026-05-03 22:36 33.69907 -85.11051 23917 ft 333 kts 268°
2026-05-03 22:36 33.69898 -85.13839 24461 ft 335 kts 268°
2026-05-03 22:36 33.69885 -85.16648 25004 ft 337 kts 268°
2026-05-03 22:37 33.69871 -85.19473 25545 ft 339 kts 268°
2026-05-03 22:37 33.69856 -85.22307 26071 ft 341 kts 268°
2026-05-03 22:37 33.69837 -85.25162 26581 ft 343 kts 268°
2026-05-03 22:37 33.69808 -85.28036 27080 ft 345 kts 268°
2026-05-03 22:38 33.69773 -85.30922 27594 ft 346 kts 268°
2026-05-03 22:38 33.69738 -85.33822 28088 ft 348 kts 268°
2026-05-03 22:38 33.69704 -85.36739 28574 ft 350 kts 268°
2026-05-03 22:38 33.69670 -85.39676 29055 ft 352 kts 268°
2026-05-03 22:39 33.69638 -85.42626 29543 ft 354 kts 268°
2026-05-03 22:39 33.69606 -85.45585 30012 ft 356 kts 268°
2026-05-03 22:39 33.69572 -85.48568 30421 ft 358 kts 268°
2026-05-03 22:39 33.69535 -85.51569 30801 ft 360 kts 267°
2026-05-03 22:40 33.69494 -85.54573 31192 ft 362 kts 267°
2026-05-03 22:40 33.69452 -85.57607 31564 ft 364 kts 267°
2026-05-03 22:40 33.69412 -85.60649 31916 ft 366 kts 267°
2026-05-03 22:40 33.69372 -85.63710 32261 ft 368 kts 267°
2026-05-03 22:41 33.69330 -85.66785 32634 ft 369 kts 267°
2026-05-03 22:41 33.69287 -85.69867 33087 ft 368 kts 267°
2026-05-03 22:41 33.69244 -85.72937 33560 ft 368 kts 267°
2026-05-03 22:41 33.69199 -85.76004 34038 ft 367 kts 267°
2026-05-03 22:42 33.69154 -85.79050 34509 ft 364 kts 267°
2026-05-03 22:42 33.69111 -85.82082 34917 ft 363 kts 267°
2026-05-03 22:42 33.69066 -85.85109 35285 ft 362 kts 267°
2026-05-03 22:42 33.69017 -85.88126 35635 ft 362 kts 266°
2026-05-03 22:43 33.68967 -85.91145 35987 ft 361 kts 266°
2026-05-03 22:43 33.68920 -85.94149 36327 ft 360 kts 266°
2026-05-03 22:43 33.68872 -85.97160 36655 ft 360 kts 266°
2026-05-03 22:43 33.68823 -86.00161 36979 ft 359 kts 266°
2026-05-03 22:44 33.68772 -86.03158 37299 ft 359 kts 266°
2026-05-03 22:44 33.68894 -86.06152 37608 ft 360 kts 272°
2026-05-03 22:44 33.69128 -86.09103 37909 ft 360 kts 272°
2026-05-03 22:44 33.69368 -86.12095 38110 ft 361 kts 272°
2026-05-03 22:45 33.69610 -86.15118 38150 ft 356 kts 272°
2026-05-03 22:45 33.70074 -86.20967 38147 ft 353 kts 272°
2026-05-03 22:46 33.70531 -86.26827 38147 ft 352 kts 272°
2026-05-03 22:46 33.70986 -86.32670 38150 ft 352 kts 272°
2026-05-03 22:47 33.71439 -86.38532 38149 ft 352 kts 272°
2026-05-03 22:47 33.71887 -86.44375 38155 ft 352 kts 272°
2026-05-03 22:48 33.72325 -86.50234 38163 ft 352 kts 272°
2026-05-03 22:48 33.72767 -86.56093 38174 ft 352 kts 272°
2026-05-03 22:49 33.73209 -86.61958 38178 ft 353 kts 272°
2026-05-03 22:49 33.73646 -86.67823 38178 ft 353 kts 272°
2026-05-03 22:50 33.74076 -86.73685 38182 ft 352 kts 272°
2026-05-03 22:50 33.74505 -86.79550 38183 ft 352 kts 272°
2026-05-03 22:51 33.74929 -86.85369 38183 ft 351 kts 272°
2026-05-03 22:51 33.75354 -86.91211 38178 ft 351 kts 272°
2026-05-03 22:52 33.75776 -86.97054 38173 ft 351 kts 272°
2026-05-03 22:52 33.76198 -87.02892 38159 ft 351 kts 272°
2026-05-03 22:53 33.76614 -87.08726 38155 ft 350 kts 272°
2026-05-03 22:53 33.77021 -87.14559 38150 ft 350 kts 272°
2026-05-03 22:54 33.77428 -87.20390 38154 ft 350 kts 272°
2026-05-03 22:54 33.77838 -87.26212 38158 ft 350 kts 272°
2026-05-03 22:55 33.78243 -87.32031 38158 ft 349 kts 272°
2026-05-03 22:55 33.78638 -87.37854 38156 ft 349 kts 272°
2026-05-03 22:56 33.79032 -87.43668 38156 ft 349 kts 272°
2026-05-03 22:56 33.79617 -87.49460 38153 ft 352 kts 280°
2026-05-03 22:57 33.80823 -87.55162 38154 ft 352 kts 279°
2026-05-03 22:57 33.81815 -87.59902 38150 ft 351 kts 279°
2026-05-03 22:58 33.83004 -87.65600 38147 ft 351 kts 279°
2026-05-03 22:58 33.84380 -87.72228 38144 ft 351 kts 279°
2026-05-03 22:59 33.85366 -87.77002 38143 ft 351 kts 279°
2026-05-03 22:59 33.86535 -87.82699 38140 ft 351 kts 279°
2026-05-03 23:00 33.87710 -87.88397 38146 ft 351 kts 279°
2026-05-03 23:00 33.88879 -87.94091 38144 ft 350 kts 279°
2026-05-03 23:01 33.90036 -87.99748 38142 ft 350 kts 279°
2026-05-03 23:01 33.91207 -88.05476 38148 ft 350 kts 279°
2026-05-03 23:02 33.92369 -88.11168 38144 ft 350 kts 279°
2026-05-03 23:02 33.93518 -88.16817 38143 ft 350 kts 279°
2026-05-03 23:03 33.94673 -88.22506 38120 ft 349 kts 279°
2026-05-03 23:03 33.95819 -88.28165 38117 ft 347 kts 279°
2026-05-03 23:04 33.96958 -88.33823 38119 ft 348 kts 280°
2026-05-03 23:04 33.98105 -88.39498 38116 ft 349 kts 280°
2026-05-03 23:05 33.99243 -88.45178 38123 ft 349 kts 280°
2026-05-03 23:05 34.00382 -88.50871 38130 ft 350 kts 280°
2026-05-03 23:06 34.01521 -88.56578 38133 ft 350 kts 280°
2026-05-03 23:06 34.02657 -88.62297 38136 ft 351 kts 280°
2026-05-03 23:07 34.03795 -88.68023 38136 ft 352 kts 280°
2026-05-03 23:07 34.04942 -88.73758 38141 ft 352 kts 280°
2026-05-03 23:08 34.06079 -88.79506 38140 ft 352 kts 280°
2026-05-03 23:08 34.07212 -88.85262 38137 ft 353 kts 280°
2026-05-03 23:09 34.08342 -88.91027 38142 ft 353 kts 281°
2026-05-03 23:09 34.09463 -88.96761 38146 ft 354 kts 281°
2026-05-03 23:10 34.10598 -89.02541 38143 ft 354 kts 281°
2026-05-03 23:10 34.11727 -89.08328 38147 ft 355 kts 281°
2026-05-03 23:11 34.12856 -89.14124 38139 ft 355 kts 281°
2026-05-03 23:11 34.13980 -89.19928 38144 ft 355 kts 281°
2026-05-03 23:12 34.15100 -89.25739 38136 ft 356 kts 281°
2026-05-03 23:12 34.16220 -89.31560 38137 ft 356 kts 281°
2026-05-03 23:13 34.17345 -89.37385 38137 ft 357 kts 281°
2026-05-03 23:13 34.18467 -89.43218 38134 ft 357 kts 281°
2026-05-03 23:14 34.19584 -89.49060 38145 ft 357 kts 281°
2026-05-03 23:14 34.20748 -89.54880 38131 ft 358 kts 283°
2026-05-03 23:15 34.22159 -89.60670 38139 ft 359 kts 285°
2026-05-03 23:15 34.23619 -89.66431 38137 ft 359 kts 284°
2026-05-03 23:16 34.25041 -89.72218 38117 ft 359 kts 284°
2026-05-03 23:16 34.26438 -89.78008 38114 ft 359 kts 284°
2026-05-03 23:17 34.27834 -89.83808 38111 ft 359 kts 284°
2026-05-03 23:17 34.29233 -89.89616 38114 ft 360 kts 284°
2026-05-03 23:18 34.30624 -89.95424 38103 ft 360 kts 284°
2026-05-03 23:18 34.32016 -90.01240 38109 ft 360 kts 284°
2026-05-03 23:19 34.33402 -90.07056 38108 ft 360 kts 284°
2026-05-03 23:19 34.34736 -90.12853 38110 ft 360 kts 282°
2026-05-03 23:20 34.35778 -90.18773 38108 ft 360 kts 280°
2026-05-03 23:20 34.36724 -90.24757 38109 ft 360 kts 280°
2026-05-03 23:20 34.37199 -90.27700 37762 ft 363 kts 281°
2026-05-03 23:21 34.37690 -90.30680 37330 ft 358 kts 281°
2026-05-03 23:21 34.38180 -90.33605 36945 ft 352 kts 281°
2026-05-03 23:21 34.38666 -90.36490 36539 ft 347 kts 281°
2026-05-03 23:21 34.39147 -90.39336 36136 ft 343 kts 281°
2026-05-03 23:22 34.40088 -90.44930 35328 ft 335 kts 281°
2026-05-03 23:22 34.40549 -90.47679 34940 ft 333 kts 281°
2026-05-03 23:22 34.41010 -90.50423 34537 ft 332 kts 282°
2026-05-03 23:23 34.41474 -90.53185 34102 ft 330 kts 282°
2026-05-03 23:23 34.41921 -90.55861 33672 ft 328 kts 282°
2026-05-03 23:23 34.42368 -90.58554 33273 ft 325 kts 282°
2026-05-03 23:23 34.42813 -90.61234 32880 ft 323 kts 282°
2026-05-03 23:24 34.43254 -90.63897 32491 ft 322 kts 282°
2026-05-03 23:24 34.43692 -90.66548 32107 ft 320 kts 282°
2026-05-03 23:24 34.44127 -90.69191 31728 ft 319 kts 282°
2026-05-03 23:24 34.44561 -90.71820 31345 ft 318 kts 283°
2026-05-03 23:25 34.44993 -90.74441 30974 ft 316 kts 283°
2026-05-03 23:25 34.45422 -90.77048 30617 ft 315 kts 283°
2026-05-03 23:25 34.45853 -90.79651 30250 ft 314 kts 283°
2026-05-03 23:25 34.46282 -90.82242 29854 ft 313 kts 283°
2026-05-03 23:26 34.46707 -90.84819 29512 ft 312 kts 283°
2026-05-03 23:26 34.47128 -90.87391 29156 ft 311 kts 283°
2026-05-03 23:26 34.47548 -90.89957 28817 ft 310 kts 283°
2026-05-03 23:26 34.47965 -90.92511 28472 ft 308 kts 283°
2026-05-03 23:27 34.48378 -90.95055 28144 ft 308 kts 283°
2026-05-03 23:27 34.48788 -90.97597 27797 ft 306 kts 283°
2026-05-03 23:27 34.49198 -91.00125 27598 ft 306 kts 283°
2026-05-03 23:27 34.49610 -91.02654 27167 ft 306 kts 283°
2026-05-03 23:28 34.50022 -91.05172 26782 ft 304 kts 283°
2026-05-03 23:28 34.50430 -91.07678 26416 ft 302 kts 283°
2026-05-03 23:28 34.50837 -91.10181 26063 ft 301 kts 283°
2026-05-03 23:28 34.51240 -91.12665 25682 ft 300 kts 283°
2026-05-03 23:29 34.51641 -91.15147 25314 ft 299 kts 283°
2026-05-03 23:29 34.52035 -91.17600 24942 ft 298 kts 283°
2026-05-03 23:29 34.52433 -91.20076 24547 ft 297 kts 283°
2026-05-03 23:29 34.52828 -91.22532 24160 ft 297 kts 283°
2026-05-03 23:30 34.53220 -91.24986 23772 ft 296 kts 284°
2026-05-03 23:30 34.53611 -91.27436 23337 ft 295 kts 284°
2026-05-03 23:30 34.53999 -91.29870 22941 ft 294 kts 284°
2026-05-03 23:30 34.54387 -91.32297 22563 ft 292 kts 284°
2026-05-03 23:31 34.54774 -91.34711 22189 ft 291 kts 284°
2026-05-03 23:31 34.55160 -91.37120 21817 ft 290 kts 284°
2026-05-03 23:31 34.55544 -91.39519 21460 ft 289 kts 284°
2026-05-03 23:31 34.55925 -91.41910 21090 ft 288 kts 284°
2026-05-03 23:32 34.56306 -91.44296 20733 ft 288 kts 284°
2026-05-03 23:32 34.56684 -91.46674 20371 ft 287 kts 284°
2026-05-03 23:32 34.57060 -91.49049 20016 ft 286 kts 284°
2026-05-03 23:32 34.57432 -91.51413 19655 ft 285 kts 284°
2026-05-03 23:33 34.57803 -91.53774 19305 ft 285 kts 284°
2026-05-03 23:33 34.58174 -91.56130 18950 ft 284 kts 284°
2026-05-03 23:33 34.58544 -91.58479 18607 ft 284 kts 284°
2026-05-03 23:33 34.58916 -91.60840 18224 ft 284 kts 284°
2026-05-03 23:34 34.59354 -91.63184 17581 ft 289 kts 294°
2026-05-03 23:34 34.60403 -91.65274 16988 ft 292 kts 308°
2026-05-03 23:34 34.61648 -91.67236 16542 ft 293 kts 309°
2026-05-03 23:34 34.62901 -91.69187 16159 ft 292 kts 309°
2026-05-03 23:35 34.64148 -91.71130 15804 ft 291 kts 309°
2026-05-03 23:35 34.65391 -91.73063 15447 ft 290 kts 309°
2026-05-03 23:35 34.66626 -91.74990 15095 ft 289 kts 309°
2026-05-03 23:35 34.67854 -91.76910 14751 ft 287 kts 309°
2026-05-03 23:36 34.69077 -91.78825 14410 ft 286 kts 309°
2026-05-03 23:36 34.70291 -91.80731 14070 ft 285 kts 309°
2026-05-03 23:36 34.71504 -91.82642 13726 ft 284 kts 309°
2026-05-03 23:36 34.72709 -91.84536 13345 ft 283 kts 309°
2026-05-03 23:37 34.73918 -91.86429 12870 ft 285 kts 309°
2026-05-03 23:37 34.75153 -91.88349 12287 ft 290 kts 309°
2026-05-03 23:37 34.76410 -91.90287 11753 ft 294 kts 309°
2026-05-03 23:37 34.77687 -91.92240 11226 ft 296 kts 309°
2026-05-03 23:38 34.78978 -91.94203 10697 ft 298 kts 309°
2026-05-03 23:38 34.80290 -91.96184 10095 ft 303 kts 309°
2026-05-03 23:38 34.81626 -91.98186 9445 ft 306 kts 309°
2026-05-03 23:38 34.82982 -92.00198 8788 ft 308 kts 309°
2026-05-03 23:39 34.84357 -92.02210 8150 ft 310 kts 309°
2026-05-03 23:39 34.85747 -92.04219 7520 ft 311 kts 309°
2026-05-03 23:39 34.87127 -92.06187 6908 ft 307 kts 309°
2026-05-03 23:39 34.88505 -92.08127 6569 ft 293 kts 309°
2026-05-03 23:40 34.89835 -92.09982 5944 ft 296 kts 309°
2026-05-03 23:40 34.91214 -92.11893 5301 ft 297 kts 310°
2026-05-03 23:40 34.92829 -92.13423 4681 ft 303 kts 332°
2026-05-03 23:40 34.94883 -92.14004 4051 ft 309 kts 357°
2026-05-03 23:41 34.96968 -92.13443 3619 ft 308 kts 24°
2026-05-03 23:41 34.98642 -92.11870 3245 ft 305 kts 50°
2026-05-03 23:41 34.99566 -92.09623 2993 ft 288 kts 78°
2026-05-03 23:41 34.99529 -92.07285 2997 ft 275 kts 108°
2026-05-03 23:42 34.98616 -92.05292 2999 ft 269 kts 137°
2026-05-03 23:42 34.97070 -92.04102 3004 ft 263 kts 166°
2026-05-03 23:42 34.95273 -92.03762 2997 ft 261 kts 178°
2026-05-03 23:42 34.93464 -92.03606 2996 ft 259 kts 181°
2026-05-03 23:43 34.91745 -92.03789 2991 ft 238 kts 191°
2026-05-03 23:43 34.90165 -92.04051 2997 ft 221 kts 191°
2026-05-03 23:43 34.89160 -92.04212 2996 ft 210 kts 191°
2026-05-03 23:43 34.87779 -92.04515 2988 ft 201 kts 204°
2026-05-03 23:44 34.86623 -92.05404 3001 ft 196 kts 227°
2026-05-03 23:44 34.85690 -92.06611 3003 ft 196 kts 229°
2026-05-03 23:44 34.84752 -92.07816 3005 ft 196 kts 228°
2026-05-03 23:44 34.83833 -92.08989 2976 ft 186 kts 228°
2026-05-03 23:45 34.82953 -92.10111 2803 ft 182 kts 228°
2026-05-03 23:45 34.82085 -92.11222 2590 ft 180 kts 228°
2026-05-03 23:45 34.81233 -92.12313 2360 ft 177 kts 228°
2026-05-03 23:45 34.80391 -92.13391 2141 ft 176 kts 229°
2026-05-03 23:46 34.79553 -92.14464 1935 ft 173 kts 229°
2026-05-03 23:46 34.78749 -92.15491 1703 ft 165 kts 229°
2026-05-03 23:46 34.77975 -92.16483 1466 ft 158 kts 228°
2026-05-03 23:46 34.77232 -92.17434 1270 ft 153 kts 228°
2026-05-03 23:47 34.76528 -92.18334 1083 ft 139 kts 229°
2026-05-03 23:47 34.75890 -92.19149 903 ft 127 kts 230°
2026-05-03 23:47 34.75295 -92.19927 694 ft 124 kts 226°
2026-05-03 23:47 34.74702 -92.20678 515 ft 121 kts 226°
2026-05-03 23:48 34.74114 -92.21421 396 ft 122 kts 226°
2026-05-03 23:48 34.73535 -92.22166 284 ft 120 kts 227°
2026-05-03 23:48 34.73041 -92.22802 261 ft 72 kts 226°
2026-05-03 23:48 34.72829 -92.23065 261 ft 35 kts 225°
2026-05-03 23:49 34.72673 -92.23264 265 ft 21 kts 226°
2026-05-03 23:49 34.72587 -92.23224 267 ft 9 kts 128°
2026-05-03 23:49 34.72599 -92.23165 268 ft 0 kts 44°
2026-05-03 23:49 34.72603 -92.23160 268 ft 2 kts 44°
2026-05-03 23:50 34.72620 -92.23140 267 ft 6 kts 45°
2026-05-03 23:50 34.72676 -92.23068 265 ft 15 kts 48°
2026-05-03 23:50 34.72753 -92.22970 264 ft 17 kts 45°
2026-05-03 23:50 34.72836 -92.22864 264 ft 18 kts 48°
2026-05-03 23:51 34.72926 -92.22749 263 ft 19 kts 45°
2026-05-03 23:51 34.73017 -92.22633 266 ft 19 kts 45°
2026-05-03 23:51 34.73107 -92.22520 266 ft 19 kts 46°
2026-05-03 23:51 34.73136 -92.22387 269 ft 17 kts 109°
2026-05-03 23:52 34.73101 -92.22270 269 ft 18 kts 111°
2026-05-03 23:52 34.73052 -92.22140 269 ft 16 kts 137°
2026-05-03 23:52 34.73024 -92.22114 269 ft 0 kts 96°
2026-05-03 23:52 34.73023 -92.22113 269 ft 1 kts 98°
2026-05-03 23:53 34.73007 -92.22102 269 ft 4 kts 149°
2026-05-03 23:53 34.72992 -92.22066 268 ft 3 kts 109°
2026-05-03 23:53 34.72987 -92.22055 267 ft 0 kts 113°